Time,TemperatureF,DewpointF,PressureIn,WindDirection,WindDirectionDegrees,WindSpeedMPH,WindSpeedGustMPH,Humidity,HourlyPrecipIn,Conditions,Clouds,dailyrainin,SoftwareType,DateUTC
2013-04-14 00:01:00,27.5,19.3,29.89,East,87,2.0,4.0,71,0.00,,,-99.99,Weather View 32 v70,2013-04-14 05:01:00,
2013-04-14 00:06:00,27.7,19.5,29.89,East,86,3.0,4.0,71,0.00,,,-99.99,Weather View 32 v70,2013-04-14 05:06:00,
2013-04-14 00:12:00,27.9,19.7,29.89,East,86,0.0,4.0,71,0.00,,,-99.99,Weather View 32 v70,2013-04-14 05:12:00,
2013-04-14 00:21:00,27.9,19.3,29.89,East,87,0.0,4.0,70,0.00,,,-99.99,Weather View 32 v70,2013-04-14 05:21:00,
2013-04-14 00:31:00,27.9,19.0,29.89,ENE,78,3.0,4.0,69,0.00,,,-99.99,Weather View 32 v70,2013-04-14 05:31:00,
2013-04-14 00:37:00,27.9,19.0,29.89,East,89,3.0,4.0,69,0.00,,,-99.99,Weather View 32 v70,2013-04-14 05:37:00,
2013-04-14 00:44:00,27.7,18.8,29.86,East,84,0.0,5.0,69,0.00,,,-99.99,Weather View 32 v70,2013-04-14 05:44:00,
2013-04-14 00:52:00,27.7,18.8,29.86,East,89,0.0,5.0,69,0.00,,,-99.99,Weather View 32 v70,2013-04-14 05:52:00,
2013-04-14 00:57:00,27.7,18.5,29.89,East,91,0.0,5.0,68,0.00,,,-99.99,Weather View 32 v70,2013-04-14 05:57:00,
2013-04-14 01:02:00,27.5,18.3,29.89,East,91,0.0,5.0,68,0.00,,,-99.99,Weather View 32 v70,2013-04-14 06:02:00,
2013-04-14 01:12:00,27.5,18.3,29.89,East,93,0.0,5.0,68,0.00,,,-99.99,Weather View 32 v70,2013-04-14 06:12:00,
2013-04-14 01:17:00,27.3,18.2,29.86,East,94,0.0,5.0,68,0.00,,,-99.99,Weather View 32 v70,2013-04-14 06:17:00,
2013-04-14 01:22:00,27.3,18.2,29.86,East,92,3.0,5.0,68,0.00,,,-99.99,Weather View 32 v70,2013-04-14 06:22:00,
2013-04-14 01:32:00,27.3,18.2,29.86,East,92,4.0,5.0,68,0.00,,,-99.99,Weather View 32 v70,2013-04-14 06:32:00,
2013-04-14 01:37:00,27.3,18.2,29.86,East,79,3.0,5.0,68,0.00,,,-99.99,Weather View 32 v70,2013-04-14 06:37:00,
2013-04-14 01:45:00,27.5,18.0,29.86,ENE,76,3.0,5.0,67,0.00,,,-99.99,Weather View 32 v70,2013-04-14 06:45:00,
2013-04-14 01:52:00,27.7,17.8,29.86,SSE,149,4.0,5.0,66,0.00,,,-99.99,Weather View 32 v70,2013-04-14 06:52:00,
2013-04-14 02:02:00,27.9,17.3,29.86,SE,126,3.0,5.0,64,0.00,,,-99.99,Weather View 32 v70,2013-04-14 07:02:00,
2013-04-14 02:07:00,27.9,16.5,29.86,SSE,167,5.0,5.0,62,0.00,,,-99.99,Weather View 32 v70,2013-04-14 07:07:00,
2013-04-14 02:17:00,27.9,16.1,29.86,ESE,103,4.0,5.0,61,0.00,,,-99.99,Weather View 32 v70,2013-04-14 07:17:00,
2013-04-14 02:22:00,27.9,15.8,29.86,ENE,68,5.0,5.0,60,0.00,,,-99.99,Weather View 32 v70,2013-04-14 07:22:00,
2013-04-14 02:27:00,27.9,15.8,29.86,East,83,4.0,5.0,60,0.00,,,-99.99,Weather View 32 v70,2013-04-14 07:27:00,
2013-04-14 02:32:00,27.9,15.8,29.86,East,99,4.0,5.0,60,0.00,,,-99.99,Weather View 32 v70,2013-04-14 07:32:00,
2013-04-14 02:37:00,27.9,15.8,29.86,ESE,107,3.0,5.0,60,0.00,,,-99.99,Weather View 32 v70,2013-04-14 07:37:00,
2013-04-14 02:45:00,27.9,15.4,29.86,East,96,4.0,5.0,59,0.00,,,-99.99,Weather View 32 v70,2013-04-14 07:45:00,
2013-04-14 02:52:00,27.9,15.4,29.86,East,93,3.0,6.0,59,0.00,,,-99.99,Weather View 32 v70,2013-04-14 07:52:00,
2013-04-14 03:02:00,27.7,15.2,29.86,East,83,4.0,6.0,59,0.00,,,-99.99,Weather View 32 v70,2013-04-14 08:02:00,
2013-04-14 03:07:00,27.9,15.8,29.86,East,85,4.0,6.0,60,0.00,,,-99.99,Weather View 32 v70,2013-04-14 08:07:00,
2013-04-14 03:12:00,27.9,15.8,29.83,ENE,78,3.0,6.0,60,0.00,,,-99.99,Weather View 32 v70,2013-04-14 08:12:00,
2013-04-14 03:22:00,28.2,15.7,29.83,ENE,77,4.0,6.0,59,0.00,,,-99.99,Weather View 32 v70,2013-04-14 08:22:00,
2013-04-14 03:27:00,28.4,15.9,29.83,ENE,75,6.0,6.0,59,0.00,,,-99.99,Weather View 32 v70,2013-04-14 08:27:00,
2013-04-14 03:32:00,28.4,15.9,29.83,East,93,6.0,6.0,59,0.00,,,-99.99,Weather View 32 v70,2013-04-14 08:32:00,
2013-04-14 03:37:00,28.4,15.5,29.83,ESE,106,4.0,6.0,58,0.00,,,-99.99,Weather View 32 v70,2013-04-14 08:37:00,
2013-04-14 03:46:00,28.4,15.5,29.83,East,90,4.0,6.0,58,0.00,,,-99.99,Weather View 32 v70,2013-04-14 08:46:00,
2013-04-14 03:52:00,28.6,15.3,29.83,East,88,3.0,7.0,57,0.00,,,-99.99,Weather View 32 v70,2013-04-14 08:52:00,
2013-04-14 03:57:00,28.8,15.4,29.83,ENE,75,5.0,7.0,57,0.00,,,-99.99,Weather View 32 v70,2013-04-14 08:57:00,
2013-04-14 04:02:00,28.9,15.6,29.83,East,89,4.0,7.0,57,0.00,,,-99.99,Weather View 32 v70,2013-04-14 09:02:00,
2013-04-14 04:12:00,28.9,15.6,29.83,ESE,106,3.0,7.0,57,0.00,,,-99.99,Weather View 32 v70,2013-04-14 09:12:00,
2013-04-14 04:17:00,28.9,15.6,29.83,East,86,3.0,7.0,57,0.00,,,-99.99,Weather View 32 v70,2013-04-14 09:17:00,
2013-04-14 04:22:00,29.1,16.2,29.83,East,96,4.0,7.0,58,0.00,,,-99.99,Weather View 32 v70,2013-04-14 09:22:00,
2013-04-14 04:32:00,29.1,16.2,29.83,SSE,160,6.0,7.0,58,0.00,,,-99.99,Weather View 32 v70,2013-04-14 09:32:00,
2013-04-14 04:42:00,29.3,16.3,29.83,East,81,4.0,8.0,58,0.00,,,-99.99,Weather View 32 v70,2013-04-14 09:42:00,
2013-04-14 04:47:00,29.3,15.9,29.83,East,96,4.0,8.0,57,0.00,,,-99.99,Weather View 32 v70,2013-04-14 09:47:00,
2013-04-14 04:57:00,29.5,15.7,29.83,ESE,104,4.0,8.0,56,0.00,,,-99.99,Weather View 32 v70,2013-04-14 09:57:00,
2013-04-14 05:02:00,29.5,15.7,29.83,East,96,6.0,8.0,56,0.00,,,-99.99,Weather View 32 v70,2013-04-14 10:02:00,
2013-04-14 05:12:00,29.7,15.9,29.83,East,85,3.0,8.0,56,0.00,,,-99.99,Weather View 32 v70,2013-04-14 10:12:00,
2013-04-14 05:17:00,29.7,15.9,29.83,East,97,7.0,8.0,56,0.00,,,-99.99,Weather View 32 v70,2013-04-14 10:17:00,
2013-04-14 05:27:00,29.7,16.3,29.83,SE,128,7.0,8.0,57,0.00,,,-99.99,Weather View 32 v70,2013-04-14 10:27:00,
2013-04-14 05:32:00,29.7,16.3,29.83,East,96,3.0,8.0,57,0.00,,,-99.99,Weather View 32 v70,2013-04-14 10:32:00,
2013-04-14 05:37:00,29.7,16.3,29.83,East,79,6.0,8.0,57,0.00,,,-99.99,Weather View 32 v70,2013-04-14 10:37:00,
2013-04-14 05:47:00,29.7,16.3,29.83,ENE,68,5.0,7.0,57,0.00,,,-99.99,Weather View 32 v70,2013-04-14 10:47:00,
2013-04-14 05:52:00,29.7,16.7,29.83,NE,36,4.0,7.0,58,0.00,,,-99.99,Weather View 32 v70,2013-04-14 10:52:00,
2013-04-14 05:57:00,29.7,16.7,29.83,East,99,5.0,7.0,58,0.00,,,-99.99,Weather View 32 v70,2013-04-14 10:57:00,
2013-04-14 06:02:00,29.7,16.7,29.80,East,82,6.0,7.0,58,0.00,,,-99.99,Weather View 32 v70,2013-04-14 11:02:00,
2013-04-14 06:12:00,29.5,16.9,29.80,ENE,74,3.0,7.0,59,0.00,,,-99.99,Weather View 32 v70,2013-04-14 11:12:00,
2013-04-14 06:22:00,29.5,17.3,29.80,ENE,77,5.0,7.0,60,0.00,,,-99.99,Weather View 32 v70,2013-04-14 11:22:00,
2013-04-14 06:32:00,29.5,17.3,29.80,ENE,58,5.0,7.0,60,0.00,,,-99.99,Weather View 32 v70,2013-04-14 11:32:00,
2013-04-14 06:37:00,29.5,17.3,29.80,ESE,113,0.0,7.0,60,0.00,,,-99.99,Weather View 32 v70,2013-04-14 11:37:00,
2013-04-14 06:42:00,29.7,17.5,29.80,SE,135,5.0,7.0,60,0.00,,,-99.99,Weather View 32 v70,2013-04-14 11:42:00,
2013-04-14 06:49:00,29.7,17.5,29.77,ESE,118,3.0,8.0,60,0.00,,,-99.99,Weather View 32 v70,2013-04-14 11:49:00,
2013-04-14 06:57:00,29.8,18.0,29.77,East,83,4.0,8.0,61,0.00,,,-99.99,Weather View 32 v70,2013-04-14 11:57:00,
2013-04-14 07:02:00,30.0,18.2,29.77,ENE,67,4.0,8.0,61,0.00,,,-99.99,Weather View 32 v70,2013-04-14 12:02:00,
2013-04-14 07:12:00,30.2,18.4,29.77,NE,55,5.0,8.0,61,0.00,,,-99.99,Weather View 32 v70,2013-04-14 12:12:00,
2013-04-14 07:17:00,30.2,18.4,29.77,NNE,29,6.0,8.0,61,0.00,,,-99.99,Weather View 32 v70,2013-04-14 12:17:00,
2013-04-14 07:22:00,30.2,18.4,29.77,East,87,4.0,8.0,61,0.00,,,-99.99,Weather View 32 v70,2013-04-14 12:22:00,
2013-04-14 07:27:00,30.4,18.1,29.77,ENE,72,4.0,9.0,60,0.00,,,-99.99,Weather View 32 v70,2013-04-14 12:27:00,
2013-04-14 07:32:00,30.7,18.5,29.77,East,100,5.0,9.0,60,0.00,,,-99.99,Weather View 32 v70,2013-04-14 12:32:00,
2013-04-14 07:37:00,30.9,18.3,29.77,East,82,6.0,9.0,59,0.00,,,-99.99,Weather View 32 v70,2013-04-14 12:37:00,
2013-04-14 07:47:00,31.3,17.8,29.77,SSE,153,5.0,9.0,57,0.00,,,-99.99,Weather View 32 v70,2013-04-14 12:47:00,
2013-04-14 07:57:00,31.3,17.4,29.77,ENE,75,7.0,11.0,56,0.00,,,-99.99,Weather View 32 v70,2013-04-14 12:57:00,
2013-04-14 08:02:00,31.5,17.6,29.77,East,79,3.0,11.0,56,0.00,,,-99.99,Weather View 32 v70,2013-04-14 13:02:00,
2013-04-14 08:12:00,31.5,17.6,29.74,ESE,109,6.0,11.0,56,0.00,,,-99.99,Weather View 32 v70,2013-04-14 13:12:00,
2013-04-14 08:17:00,31.6,17.7,29.74,ENE,76,6.0,11.0,56,0.00,,,-99.99,Weather View 32 v70,2013-04-14 13:17:00,
2013-04-14 08:22:00,31.6,17.7,29.74,East,94,6.0,11.0,56,0.00,,,-99.99,Weather View 32 v70,2013-04-14 13:22:00,
2013-04-14 08:32:00,31.6,17.7,29.74,East,87,6.0,11.0,56,0.00,,,-99.99,Weather View 32 v70,2013-04-14 13:32:00,
2013-04-14 08:37:00,31.8,17.9,29.74,East,80,4.0,11.0,56,0.00,,,-99.99,Weather View 32 v70,2013-04-14 13:37:00,
2013-04-14 08:42:00,31.8,17.9,29.74,East,85,8.0,11.0,56,0.00,,,-99.99,Weather View 32 v70,2013-04-14 13:42:00,
2013-04-14 08:50:00,32.0,18.1,29.74,NE,54,6.0,11.0,56,0.00,,,-99.99,Weather View 32 v70,2013-04-14 13:50:00,
2013-04-14 08:57:00,32.2,18.2,29.71,SSE,152,6.0,10.0,56,0.00,,,-99.99,Weather View 32 v70,2013-04-14 13:57:00,
2013-04-14 09:02:00,32.2,17.8,29.71,ESE,104,8.0,10.0,55,0.00,,,-99.99,Weather View 32 v70,2013-04-14 14:02:00,
2013-04-14 09:12:00,32.5,18.2,29.71,South,183,4.0,11.0,55,0.00,,,-99.99,Weather View 32 v70,2013-04-14 14:12:00,
2013-04-14 09:17:00,32.7,17.9,29.71,SE,141,4.0,11.0,54,0.00,,,-99.99,Weather View 32 v70,2013-04-14 14:17:00,
2013-04-14 09:22:00,32.7,17.9,29.71,East,82,8.0,11.0,54,0.00,,,-99.99,Weather View 32 v70,2013-04-14 14:22:00,
2013-04-14 09:32:00,33.1,17.8,29.71,SSE,166,9.0,11.0,53,0.00,,,-99.99,Weather View 32 v70,2013-04-14 14:32:00,
2013-04-14 09:37:00,33.3,18.0,29.71,SE,144,4.0,11.0,53,0.00,,,-99.99,Weather View 32 v70,2013-04-14 14:37:00,
2013-04-14 09:47:00,33.6,17.4,29.71,SE,125,8.0,11.0,51,0.00,,,-99.99,Weather View 32 v70,2013-04-14 14:47:00,
2013-04-14 09:52:00,33.8,17.6,29.71,ENE,62,6.0,13.0,51,0.00,,,-99.99,Weather View 32 v70,2013-04-14 14:52:00,
2013-04-14 09:57:00,34.0,17.7,29.71,South,189,5.0,13.0,51,0.00,,,-99.99,Weather View 32 v70,2013-04-14 14:57:00,
2013-04-14 10:02:00,34.2,17.4,29.71,South,187,6.0,13.0,50,0.00,,,-99.99,Weather View 32 v70,2013-04-14 15:02:00,
2013-04-14 10:12:00,34.3,17.6,29.68,NNE,18,5.0,13.0,50,0.00,,,-99.99,Weather View 32 v70,2013-04-14 15:12:00,
2013-04-14 10:17:00,34.5,17.3,29.68,NE,52,8.0,13.0,49,0.00,,,-99.99,Weather View 32 v70,2013-04-14 15:17:00,
2013-04-14 10:27:00,34.3,17.1,29.68,SSE,148,6.0,13.0,49,0.00,,,-99.99,Weather View 32 v70,2013-04-14 15:27:00,
2013-04-14 10:32:00,34.3,16.7,29.68,East,82,4.0,15.0,48,0.00,,,-99.99,Weather View 32 v70,2013-04-14 15:32:00,
2013-04-14 10:42:00,34.3,16.7,29.68,SE,145,8.0,15.0,48,0.00,,,-99.99,Weather View 32 v70,2013-04-14 15:42:00,
2013-04-14 10:47:00,34.3,16.7,29.68,ESE,115,8.0,15.0,48,0.00,,,-99.99,Weather View 32 v70,2013-04-14 15:47:00,
2013-04-14 10:57:00,34.5,17.3,29.68,East,81,6.0,15.0,49,0.00,,,-99.99,Weather View 32 v70,2013-04-14 15:57:00,
2013-04-14 11:07:00,34.3,17.1,29.68,SE,125,6.0,15.0,49,0.00,,,-99.99,Weather View 32 v70,2013-04-14 16:07:00,
2013-04-14 11:12:00,34.2,17.0,29.68,East,93,3.0,15.0,49,0.00,,,-99.99,Weather View 32 v70,2013-04-14 16:12:00,
2013-04-14 11:17:00,34.2,17.0,29.68,ESE,104,4.0,15.0,49,0.00,,,-99.99,Weather View 32 v70,2013-04-14 16:17:00,
2013-04-14 11:27:00,34.2,17.0,29.68,ENE,63,7.0,15.0,49,0.00,,,-99.99,Weather View 32 v70,2013-04-14 16:27:00,
2013-04-14 11:32:00,34.3,16.7,29.68,SSW,211,5.0,13.0,48,0.00,,,-99.99,Weather View 32 v70,2013-04-14 16:32:00,
2013-04-14 11:42:00,34.3,16.7,29.68,SSE,165,4.0,13.0,48,0.00,,,-99.99,Weather View 32 v70,2013-04-14 16:42:00,
2013-04-14 11:47:00,34.3,16.7,29.68,East,100,8.0,11.0,48,0.00,,,-99.99,Weather View 32 v70,2013-04-14 16:47:00,
2013-04-14 11:52:00,34.5,16.8,29.68,ENE,72,5.0,9.0,48,0.00,,,-99.99,Weather View 32 v70,2013-04-14 16:52:00,
2013-04-14 12:02:00,34.3,18.1,29.65,East,84,6.0,11.0,51,0.00,,,-99.99,Weather View 32 v70,2013-04-14 17:02:00,
2013-04-14 12:12:00,34.2,17.9,29.65,ENE,58,6.0,11.0,51,0.00,,,-99.99,Weather View 32 v70,2013-04-14 17:12:00,
2013-04-14 12:17:00,34.0,17.7,29.65,SE,144,8.0,15.0,51,0.00,,,-99.99,Weather View 32 v70,2013-04-14 17:17:00,
2013-04-14 12:27:00,33.8,18.9,29.65,East,86,6.0,15.0,54,0.00,,,-99.99,Weather View 32 v70,2013-04-14 17:27:00,
2013-04-14 12:32:00,33.8,19.3,29.65,East,79,8.0,15.0,55,0.00,,,-99.99,Weather View 32 v70,2013-04-14 17:32:00,
2013-04-14 12:37:00,33.4,19.8,29.65,East,89,9.0,15.0,57,0.00,,,-99.99,Weather View 32 v70,2013-04-14 17:37:00,
2013-04-14 12:47:00,33.8,18.9,29.62,ENE,76,9.0,15.0,54,0.00,,,-99.99,Weather View 32 v70,2013-04-14 17:47:00,
2013-04-14 12:52:00,34.0,18.6,29.62,SSE,162,6.0,15.0,53,0.00,,,-99.99,Weather View 32 v70,2013-04-14 17:52:00,
2013-04-14 12:57:00,33.6,19.2,29.62,NE,48,8.0,15.0,55,0.00,,,-99.99,Weather View 32 v70,2013-04-14 17:57:00,
2013-04-14 13:02:00,33.8,18.9,29.62,ESE,119,9.0,15.0,54,0.00,,,-99.99,Weather View 32 v70,2013-04-14 18:02:00,
2013-04-14 13:07:00,33.6,20.0,29.62,East,93,6.0,15.0,57,0.00,,,-99.99,Weather View 32 v70,2013-04-14 18:07:00,
2013-04-14 13:17:00,33.6,20.8,29.62,East,93,5.0,13.0,59,0.00,,,-99.99,Weather View 32 v70,2013-04-14 18:17:00,
2013-04-14 13:22:00,33.3,22.4,29.62,ESE,104,10.0,13.0,64,0.00,,,-99.99,Weather View 32 v70,2013-04-14 18:22:00,
2013-04-14 13:32:00,32.9,24.9,29.62,ENE,75,8.0,13.0,72,0.00,,,-99.99,Weather View 32 v70,2013-04-14 18:32:00,
2013-04-14 13:37:00,32.9,25.8,29.62,East,90,4.0,15.0,75,0.00,,,-99.99,Weather View 32 v70,2013-04-14 18:37:00,
2013-04-14 13:42:00,32.9,26.5,29.62,NE,43,9.0,15.0,77,0.00,,,-99.99,Weather View 32 v70,2013-04-14 18:42:00,
2013-04-14 13:47:00,33.1,27.3,29.62,East,84,6.0,15.0,79,0.00,,,-99.99,Weather View 32 v70,2013-04-14 18:47:00,
2013-04-14 13:52:00,33.3,27.5,29.62,East,85,10.0,15.0,79,0.00,,,-99.99,Weather View 32 v70,2013-04-14 18:52:00,
2013-04-14 14:02:00,33.6,29.0,29.62,SE,136,6.0,15.0,83,0.00,,,-99.99,Weather View 32 v70,2013-04-14 19:02:00,
2013-04-14 14:07:00,33.6,29.6,29.62,ENE,65,4.0,15.0,85,0.00,,,-99.99,Weather View 32 v70,2013-04-14 19:07:00,
2013-04-14 14:12:00,33.8,30.1,29.62,East,98,5.0,16.0,86,0.00,,,-99.99,Weather View 32 v70,2013-04-14 19:12:00,
2013-04-14 14:22:00,34.3,31.4,29.62,East,92,6.0,16.0,89,0.00,,,-99.99,Weather View 32 v70,2013-04-14 19:22:00,
2013-04-14 14:32:00,34.5,32.2,29.59,SSE,164,7.0,16.0,91,0.00,,,-99.99,Weather View 32 v70,2013-04-14 19:32:00,
2013-04-14 14:42:00,34.7,32.9,29.59,ENE,61,8.0,16.0,93,0.00,,,-99.99,Weather View 32 v70,2013-04-14 19:42:00,
2013-04-14 14:52:00,35.1,33.8,29.59,ENE,70,8.0,16.0,95,0.00,,,-99.99,Weather View 32 v70,2013-04-14 19:52:00,
2013-04-14 14:57:00,35.1,33.8,29.59,NE,41,8.0,16.0,95,0.00,,,-99.99,Weather View 32 v70,2013-04-14 19:57:00,
2013-04-14 15:02:00,35.2,34.2,29.59,East,82,6.0,16.0,96,0.00,,,-99.99,Weather View 32 v70,2013-04-14 20:02:00,
2013-04-14 15:07:00,35.4,34.7,29.59,East,91,8.0,16.0,97,0.00,,,-99.99,Weather View 32 v70,2013-04-14 20:07:00,
2013-04-14 15:17:00,35.4,34.7,29.56,ESE,116,9.0,16.0,97,0.00,,,-99.99,Weather View 32 v70,2013-04-14 20:17:00,
2013-04-14 15:22:00,35.6,34.8,29.56,East,100,8.0,16.0,97,0.00,,,-99.99,Weather View 32 v70,2013-04-14 20:22:00,
2013-04-14 15:27:00,35.6,34.8,29.56,East,88,5.0,16.0,97,0.00,,,-99.99,Weather View 32 v70,2013-04-14 20:27:00,
2013-04-14 15:37:00,35.8,35.3,29.56,ENE,70,5.0,16.0,98,0.00,,,-99.99,Weather View 32 v70,2013-04-14 20:37:00,
2013-04-14 15:42:00,35.8,35.3,29.56,East,95,6.0,15.0,98,0.00,,,-99.99,Weather View 32 v70,2013-04-14 20:42:00,
2013-04-14 15:47:00,35.8,35.3,29.56,ENE,73,6.0,15.0,98,0.00,,,-99.99,Weather View 32 v70,2013-04-14 20:47:00,
2013-04-14 15:54:00,35.8,35.3,29.56,ESE,103,4.0,15.0,98,0.00,,,-99.99,Weather View 32 v70,2013-04-14 20:54:00,
2013-04-14 16:02:00,36.1,35.6,29.56,East,92,8.0,15.0,98,0.00,,,-99.99,Weather View 32 v70,2013-04-14 21:02:00,
2013-04-14 16:07:00,36.1,35.6,29.56,ENE,77,8.0,15.0,98,0.00,,,-99.99,Weather View 32 v70,2013-04-14 21:07:00,
2013-04-14 16:17:00,36.3,35.8,29.56,ENE,65,5.0,15.0,98,0.00,,,-99.99,Weather View 32 v70,2013-04-14 21:17:00,
2013-04-14 16:27:00,36.3,35.8,29.53,East,91,6.0,15.0,98,0.00,,,-99.99,Weather View 32 v70,2013-04-14 21:27:00,
2013-04-14 16:32:00,36.3,35.8,29.53,ESE,108,5.0,15.0,98,0.00,,,-99.99,Weather View 32 v70,2013-04-14 21:32:00,
2013-04-14 16:42:00,36.3,35.8,29.53,ESE,103,3.0,13.0,98,0.00,,,-99.99,Weather View 32 v70,2013-04-14 21:42:00,
2013-04-14 16:47:00,36.3,35.8,29.53,East,85,4.0,9.0,98,0.00,,,-99.99,Weather View 32 v70,2013-04-14 21:47:00,
2013-04-14 16:52:00,36.5,36.0,29.53,ESE,104,6.0,9.0,98,0.00,,,-99.99,Weather View 32 v70,2013-04-14 21:52:00,
2013-04-14 17:02:00,36.5,36.0,29.53,SSE,155,6.0,9.0,98,0.00,,,-99.99,Weather View 32 v70,2013-04-14 22:02:00,
2013-04-14 17:12:00,36.7,36.2,29.53,ENE,73,4.0,9.0,98,0.00,,,-99.99,Weather View 32 v70,2013-04-14 22:12:00,
2013-04-14 17:17:00,36.7,36.2,29.53,East,90,3.0,9.0,98,0.00,,,-99.99,Weather View 32 v70,2013-04-14 22:17:00,
2013-04-14 17:22:00,36.7,36.2,29.53,ENE,76,4.0,9.0,98,0.00,,,-99.99,Weather View 32 v70,2013-04-14 22:22:00,
2013-04-14 17:32:00,36.7,36.2,29.53,ESE,103,8.0,10.0,98,0.00,,,-99.99,Weather View 32 v70,2013-04-14 22:32:00,
2013-04-14 17:37:00,36.7,36.2,29.53,East,84,6.0,10.0,98,0.00,,,-99.99,Weather View 32 v70,2013-04-14 22:37:00,
2013-04-14 17:42:00,36.7,36.2,29.53,ENE,63,5.0,10.0,98,0.00,,,-99.99,Weather View 32 v70,2013-04-14 22:42:00,
2013-04-14 17:52:00,36.9,36.3,29.53,ENE,73,4.0,10.0,98,0.00,,,-99.99,Weather View 32 v70,2013-04-14 22:52:00,
2013-04-14 18:02:00,36.9,36.3,29.53,ENE,78,5.0,10.0,98,0.00,,,-99.99,Weather View 32 v70,2013-04-14 23:02:00,
2013-04-14 18:12:00,36.9,36.3,29.53,ENE,73,6.0,10.0,98,0.00,,,-99.99,Weather View 32 v70,2013-04-14 23:12:00,
2013-04-14 18:17:00,36.9,36.3,29.53,East,86,6.0,10.0,98,0.00,,,-99.99,Weather View 32 v70,2013-04-14 23:17:00,
2013-04-14 18:27:00,37.0,36.5,29.53,SSE,156,5.0,9.0,98,0.00,,,-99.99,Weather View 32 v70,2013-04-14 23:27:00,
2013-04-14 18:32:00,36.9,36.3,29.53,South,186,7.0,9.0,98,0.00,,,-99.99,Weather View 32 v70,2013-04-14 23:32:00,
2013-04-14 18:37:00,37.0,36.5,29.53,East,84,0.0,9.0,98,0.00,,,-99.99,Weather View 32 v70,2013-04-14 23:37:00,
2013-04-14 18:47:00,37.0,36.5,29.50,ENE,78,0.0,9.0,98,0.00,,,-99.99,Weather View 32 v70,2013-04-14 23:47:00,
2013-04-14 18:52:00,37.0,36.5,29.50,East,89,0.0,9.0,98,0.00,,,-99.99,Weather View 32 v70,2013-04-14 23:52:00,
2013-04-14 19:02:00,37.0,36.5,29.53,ENE,68,0.0,9.0,98,0.00,,,-99.99,Weather View 32 v70,2013-04-15 00:02:00,
2013-04-14 19:07:00,37.0,36.5,29.53,East,80,0.0,9.0,98,0.00,,,-99.99,Weather View 32 v70,2013-04-15 00:07:00,
2013-04-14 19:17:00,37.0,36.5,29.53,ENE,72,0.0,9.0,98,0.00,,,-99.99,Weather View 32 v70,2013-04-15 00:17:00,
2013-04-14 19:27:00,37.0,36.5,29.53,ENE,69,0.0,9.0,98,0.00,,,-99.99,Weather View 32 v70,2013-04-15 00:27:00,
2013-04-14 19:32:00,37.0,36.5,29.53,ESE,106,0.0,8.0,98,0.00,,,-99.99,Weather View 32 v70,2013-04-15 00:32:00,
2013-04-14 19:42:00,37.0,36.5,29.53,NE,56,0.0,0.0,98,0.00,,,-99.99,Weather View 32 v70,2013-04-15 00:42:00,
2013-04-14 19:47:00,37.0,36.5,29.53,ENE,68,0.0,0.0,98,0.00,,,-99.99,Weather View 32 v70,2013-04-15 00:47:00,
2013-04-14 19:57:00,37.0,36.5,29.50,SE,135,0.0,0.0,98,0.00,,,-99.99,Weather View 32 v70,2013-04-15 00:57:00,
2013-04-14 20:07:00,37.0,36.5,29.50,East,99,0.0,0.0,98,0.00,,,-99.99,Weather View 32 v70,2013-04-15 01:07:00,
2013-04-14 20:12:00,36.9,36.3,29.50,NE,47,0.0,0.0,98,0.00,,,-99.99,Weather View 32 v70,2013-04-15 01:12:00,
2013-04-14 20:22:00,36.9,36.3,29.50,East,90,0.0,0.0,98,0.00,,,-99.99,Weather View 32 v70,2013-04-15 01:22:00,
2013-04-14 20:27:00,36.9,36.3,29.50,East,90,0.0,0.0,98,0.00,,,-99.99,Weather View 32 v70,2013-04-15 01:27:00,
2013-04-14 20:32:00,36.9,36.3,29.50,East,90,0.0,0.0,98,0.00,,,-99.99,Weather View 32 v70,2013-04-15 01:32:00,
2013-04-14 20:42:00,36.9,36.3,29.50,East,90,0.0,0.0,98,0.00,,,-99.99,Weather View 32 v70,2013-04-15 01:42:00,
2013-04-14 20:47:00,36.9,36.3,29.50,East,90,0.0,0.0,98,0.00,,,-99.99,Weather View 32 v70,2013-04-15 01:47:00,
2013-04-14 20:57:00,36.7,36.2,29.50,East,90,0.0,0.0,98,0.00,,,-99.99,Weather View 32 v70,2013-04-15 01:57:00,
2013-04-14 21:02:00,36.7,36.2,29.50,East,90,0.0,0.0,98,0.00,,,-99.99,Weather View 32 v70,2013-04-15 02:02:00,
2013-04-14 21:12:00,36.7,36.2,29.50,East,90,0.0,0.0,98,0.00,,,-99.99,Weather View 32 v70,2013-04-15 02:12:00,
2013-04-14 21:22:00,36.7,36.2,29.50,East,91,0.0,0.0,98,0.00,,,-99.99,Weather View 32 v70,2013-04-15 02:22:00,
2013-04-14 21:32:00,36.7,36.2,29.50,East,90,0.0,0.0,98,0.00,,,-99.99,Weather View 32 v70,2013-04-15 02:32:00,
2013-04-14 21:37:00,36.7,36.2,29.50,East,90,0.0,0.0,98,0.00,,,-99.99,Weather View 32 v70,2013-04-15 02:37:00,
2013-04-14 21:47:00,36.7,36.2,29.50,East,90,0.0,0.0,98,0.00,,,-99.99,Weather View 32 v70,2013-04-15 02:47:00,
2013-04-14 21:57:00,36.7,36.2,29.50,East,90,0.0,0.0,98,0.00,,,-99.99,Weather View 32 v70,2013-04-15 02:57:00,
2013-04-14 22:02:00,36.7,36.2,29.50,East,90,0.0,0.0,98,0.00,,,-99.99,Weather View 32 v70,2013-04-15 03:02:00,
2013-04-14 22:12:00,36.7,36.2,29.47,East,90,0.0,0.0,98,0.00,,,-99.99,Weather View 32 v70,2013-04-15 03:12:00,
2013-04-14 22:17:00,36.7,36.2,29.47,East,90,0.0,0.0,98,0.00,,,-99.99,Weather View 32 v70,2013-04-15 03:17:00,
2013-04-14 22:27:00,36.7,36.2,29.47,East,90,0.0,0.0,98,0.00,,,-99.99,Weather View 32 v70,2013-04-15 03:27:00,
2013-04-14 22:37:00,36.7,36.2,29.47,East,90,0.0,0.0,98,0.00,,,-99.99,Weather View 32 v70,2013-04-15 03:37:00,
2013-04-14 22:47:00,36.7,36.2,29.47,East,90,0.0,0.0,98,0.00,,,-99.99,Weather View 32 v70,2013-04-15 03:47:00,
2013-04-14 22:52:00,36.5,36.0,29.47,East,90,0.0,0.0,98,0.00,,,-99.99,Weather View 32 v70,2013-04-15 03:52:00,
2013-04-14 22:59:00,36.5,36.0,29.47,East,90,0.0,0.0,98,0.00,,,-99.99,Weather View 32 v70,2013-04-15 03:59:00,
2013-04-14 23:02:00,36.5,36.0,29.47,East,90,0.0,0.0,98,0.00,,,-99.99,Weather View 32 v70,2013-04-15 04:02:00,
2013-04-14 23:07:00,36.5,36.0,29.47,East,90,0.0,0.0,98,0.00,,,-99.99,Weather View 32 v70,2013-04-15 04:07:00,
2013-04-14 23:12:00,36.5,36.0,29.44,East,90,0.0,0.0,98,0.00,,,-99.99,Weather View 32 v70,2013-04-15 04:12:00,
2013-04-14 23:22:00,36.5,36.0,29.44,East,90,0.0,0.0,98,0.00,,,-99.99,Weather View 32 v70,2013-04-15 04:22:00,
2013-04-14 23:32:00,36.3,35.8,29.44,East,90,0.0,0.0,98,0.00,,,-99.99,Weather View 32 v70,2013-04-15 04:32:00,
2013-04-14 23:42:00,36.3,35.8,29.44,East,90,0.0,0.0,98,0.00,,,-99.99,Weather View 32 v70,2013-04-15 04:42:00,
2013-04-14 23:52:00,36.3,35.8,29.44,East,90,0.0,0.0,98,0.00,,,-99.99,Weather View 32 v70,2013-04-15 04:52:00,
2013-04-14 23:59:00,36.3,35.8,29.44,East,90,0.0,0.0,98,0.00,,,-99.99,Weather View 32 v70,2013-04-15 04:59:00,